Location: Carbonear
(47.7333°N, 53.2500°W)
Time: 21:01:34
(UTC+00:00)

AO-27 - Pass Details

Date: 12 December 2022
Orbit: 784 x 798 km, 98.9° (Epoch: 04 February)

Event Time Altitude Azimuth Distance (km) Brightness Sun altitude
Exits shadow 22:12:30 19° 7° (N) 1,854 9.4 -24.4°
Drops below altitude 10° 22:14:00 10° 358° (N) 2,382 10.1 -24.6°
Sets 22:16:27 0° 351° (N) 3,317 10.9 -25.0°
